Hurricane Symbol View the latest observations near Atlantic Potential Tropical Cyclone One.

Station IRDT2 - 8776139 - South Bird Island, TX Image indicating link to RSS feed of recent meteorological observations for station IRDT2


Conditions at IRDT2 as of
(9:48 am CDT)
1448 GMT on 06/18/2024:
     

Click on the graph icon in the table below to see a time series plot of the last five days of that observation.

5-day plot - Wind Direction Wind Direction (WDIR): E ( 100 deg true )
5-day plot - Wind Speed Wind Speed (WSPD): 8.9 kts
5-day plot - Wind Gust Wind Gust (GST): 12.0 kts
5-day plot - Atmospheric Pressure Atmospheric Pressure (PRES):29.76 in
5-day plot - Air Temperature Air Temperature (ATMP): 84.7 °F
5-day plot - Water Temperature Water Temperature (WTMP): 82.9 °F
5-day plot - Wind Speed at 10 Meters Wind Speed at 10 meters (WSPD10M): 9.7 kts
5-day plot - Wind Speed at 20 Meters Wind Speed at 20 meters (WSPD20M): 11.7 kts
5-day plot -  Wind Speed, Wind Gust and Atmospheric Pressure Combined plot of Wind Speed, Gust, and Air Pressure
Previous observations
TIME
(CDT)
5-day plot - Wind Direction
WDIR
 
5-day plot - Wind Speed
WSPD
kts
5-day plot - Wind Gust
GST
kts
5-day plot - Wave Height
WVHT
ft
5-day plot - Dominant Wave Period
DPD
sec
5-day plot - Average Wave Period
APD
sec
5-day plot - Mean Wave Direction
MWD
 
5-day plot - Atmospheric Pressure
PRES
in
5-day plot - Pressure Tendency
PTDY
in
5-day plot - Air Temperature
ATMP
°F
5-day plot - Water Temperature
WTMP
°F
5-day plot - Dew Point
DEWP
°F
5-day plot - Salinity
SAL
psu
5-day plot - Visibility
VIS
nmi
5-day plot - Tide (above MLLW)
TIDE
ft
2024-06-18 09:42 am E 8.0 11.1----29.76- 84.6 82.9----
2024-06-18 09:36 am E 9.9 13.0----29.76- 84.6 83.1----
2024-06-18 09:30 amESE 9.9 11.1----29.76- 84.6 83.3----
2024-06-18 09:24 amESE 9.9 13.0----29.76- 84.6 83.3----
2024-06-18 09:18 amESE 11.1 15.0----29.76- 84.6 83.3----
2024-06-18 09:12 am E 11.1 15.9----29.76- 84.6 83.3----
2024-06-18 09:06 amESE 12.0 15.0----29.75- 84.4 83.3----
2024-06-18 09:00 amESE 13.0 15.9----29.75+0.03 84.0 83.5----
2024-06-18 08:54 amESE 12.0 15.9----29.75- 83.8 83.5----
2024-06-18 08:48 amESE 11.1 12.0----29.75- 83.7 83.5----
2024-06-18 08:42 am SE 9.9 15.0----29.75- 83.7 83.5----
2024-06-18 08:36 amESE 12.0 15.0----29.75- 83.8 83.7----
2024-06-18 08:30 am SE 12.0 14.0----29.75- 83.7 83.7----
2024-06-18 08:24 am SE 12.0 14.0----29.74- 83.7 83.7----
2024-06-18 08:18 amESE 13.0 17.1----29.74- 83.3 83.8----
2024-06-18 08:12 amESE 14.0 18.1----29.74- 83.5 83.8----
2024-06-18 08:06 amESE 14.0 17.1----29.74- 83.1 83.8----
2024-06-18 08:00 amESE 12.0 15.9----29.74+0.02 83.3 84.0----
2024-06-18 07:54 amESE 12.0 15.0----29.74- 82.9 84.0----
2024-06-18 07:48 amESE 12.0 15.9----29.74- 82.4 84.0----
2024-06-18 07:42 amESE 13.0 18.1----29.74- 81.9 84.0----
2024-06-18 07:36 amESE 15.9 19.0----29.74- 81.7 84.0----
2024-06-18 07:30 amESE 15.9 21.0----29.74- 81.7 84.0----
2024-06-18 07:24 am E 15.9 21.0----29.74- 81.9 84.0----
2024-06-18 07:18 am E 17.1 20.0----29.73- 81.7 84.0----
2024-06-18 07:12 am E 15.9 21.0----29.73- 82.0 84.0----
2024-06-18 07:06 am E 18.1 21.0----29.73- 82.0 84.0----
2024-06-18 07:00 amESE 15.0 19.0----29.74+0.00 83.3 84.0----
2024-06-18 06:54 am SE 13.0 20.0----29.74- 83.1 84.0----
2024-06-18 06:48 am SE 15.0 18.1----29.73- 82.8 83.8----
2024-06-18 06:42 am SE 12.0 15.0----29.73- 82.8 83.8----
2024-06-18 06:36 am SE 13.0 19.0----29.73- 82.8 83.8----
2024-06-18 06:30 am SE 8.9 12.0----29.73- 82.8 83.8----
2024-06-18 06:24 am SE 8.9 12.0----29.72- 82.4 83.8----
2024-06-18 06:18 amSSE 9.9 13.0----29.72-- 83.8----
2024-06-18 06:12 amSSE 12.0 15.0----29.72- 80.8 83.8----
2024-06-18 06:06 amSSE 15.0 22.9----29.72- 81.1 83.8----
2024-06-18 06:00 amSSE 15.9 22.9----29.72-0.02 82.6 83.8----
2024-06-18 05:54 amESE 15.0 19.0----29.72- 84.0 83.8----
2024-06-18 05:48 amESE 15.9 19.0----29.72- 83.8 83.8----
2024-06-18 05:42 amESE 14.0 17.1----29.72- 83.8 83.8----
2024-06-18 05:36 am SE 11.1 15.9----29.72- 83.7 83.8----
2024-06-18 05:30 amESE 13.0 17.1----29.72- 83.8 83.8----
2024-06-18 05:24 amESE 14.0 17.1----29.72- 84.0 83.8----
2024-06-18 05:18 amESE 14.0 18.1----29.72- 83.8 83.8----
2024-06-18 05:12 amESE 13.0 17.1----29.72- 83.7 83.8----
2024-06-18 05:06 amESE 12.0 14.0----29.72- 83.8 83.8----
2024-06-18 05:00 amESE 12.0 19.0----29.72-0.04 84.0 83.8----
2024-06-18 04:54 amESE 14.0 18.1----29.72- 83.8 83.8----
2024-06-18 04:48 amESE 13.0 18.1----29.73- 83.8 83.8----
2024-06-18 04:42 am SE 14.0 18.1----29.73- 84.0 83.8----
2024-06-18 04:36 amESE 15.0 18.1----29.73- 83.7 83.8----
2024-06-18 04:30 am SE 13.0 18.1----29.73- 83.8 83.8----
2024-06-18 04:24 amESE 15.0 19.0----29.73- 83.8 83.8----
2024-06-18 04:18 am SE 14.0 18.1----29.73- 84.0 83.8----
2024-06-18 04:12 am SE 14.0 18.1----29.73- 83.7 83.8----
2024-06-18 04:06 am SE 15.9 20.0----29.73- 83.8 83.8----
2024-06-18 04:00 amESE 15.0 19.0----29.73-0.05 83.7 84.0----
2024-06-18 03:54 amESE 15.9 21.0----29.73- 83.5 84.0----
2024-06-18 03:48 am SE 15.9 19.0----29.73-- 84.7----
2024-06-18 03:42 am SE 14.0 19.0----29.73- 83.5 84.9----
2024-06-18 03:36 am SE 14.0 18.1----29.73- 83.5 84.9----
2024-06-18 03:30 am SE 14.0 19.0----29.73- 83.5 84.9----
2024-06-18 03:24 amESE 15.0 20.0----29.73- 83.5 85.1----
2024-06-18 03:18 amESE 13.0 18.1----29.73-------
2024-06-18 03:12 amESE 15.0 19.0----29.74- 83.5 85.1----
2024-06-18 03:06 amESE 15.9 19.0----29.74- 83.3 85.3----
2024-06-18 03:00 amESE 15.0 20.0----29.74-0.05 83.5 85.3----
2024-06-18 02:54 amESE 15.9 22.0----29.75- 83.5 85.5----
2024-06-18 02:48 amESE 15.9 20.0----29.75- 83.5 85.5----
2024-06-18 02:42 amESE 15.9 21.0----29.75- 83.5 85.5----
2024-06-18 02:36 amESE 17.1 21.0----29.75- 84.4 85.6----
2024-06-18 02:30 amESE 14.0 22.0----29.75- 84.6 85.6----
2024-06-18 02:24 amESE 17.1 19.0----29.75- 84.6 85.8----
2024-06-18 02:18 am SE 15.0 19.0----29.76-- 85.8----
2024-06-18 02:12 am SE 18.1 21.0----29.76- 84.7 86.0----
2024-06-18 02:06 am SE 17.1 21.0----29.76- 84.7 86.0----
2024-06-18 02:00 am SE 21.0 24.1----29.77-0.02 84.7 86.0----
2024-06-18 01:54 am SE 19.0 22.9----29.77- 84.7 86.2----
2024-06-18 01:48 am SE 15.9 21.0----29.77- 84.7 86.2----
2024-06-18 01:42 am SE 17.1 22.9----29.77- 84.6 86.2----
2024-06-18 01:36 amESE 20.0 24.1----29.77- 84.6 86.4----
2024-06-18 01:30 am SE 17.1 21.0----29.77- 84.6 86.4----
2024-06-18 01:24 am SE 18.1 22.0----29.78- 84.6 86.4----
2024-06-18 01:18 am SE 15.9 22.0----29.78- 84.4 86.4----
2024-06-18 01:12 am SE 15.9 22.9----29.78- 84.4 86.5----
2024-06-18 01:06 am SE 19.0 25.1----29.78- 84.6 86.5----
2024-06-18 01:00 amESE 20.0 24.1----29.78+0.00 84.6 86.5----
2024-06-18 12:54 am SE 20.0 25.1----29.78- 84.4 86.5----
2024-06-18 12:48 am SE 19.0 24.1----29.78- 84.6 86.7----
2024-06-18 12:42 amESE 20.0 24.1----29.78- 84.4 86.7----
2024-06-18 12:36 am SE 15.9 21.0----29.78- 84.2 86.7----
2024-06-18 12:30 am SE 17.1 22.9----29.79- 84.4 86.7----
2024-06-18 12:24 amESE 19.0 22.9----29.79- 84.2 86.9----
2024-06-18 12:18 amESE 19.0 24.1----29.79- 84.6 86.9----
2024-06-18 12:12 am SE 18.1 22.9----29.79- 84.6 86.9----
2024-06-18 12:06 am SE 17.1 22.9----29.79- 84.7 87.1----
2024-06-18 12:00 am SE 19.0 24.1----29.79+0.02 84.4 87.1----
2024-06-17 11:54 pm SE 18.1 22.0----29.79- 84.7 87.1----
2024-06-17 11:48 pmESE 19.0 22.9----29.79- 84.6 87.1----
2024-06-17 11:42 pm SE 15.9 22.0----29.79- 84.6 87.3----
2024-06-17 11:36 pm SE 15.0 22.9----29.79- 84.6 87.3----
2024-06-17 11:30 pm SE 18.1 21.0----29.79- 84.6 87.3----
2024-06-17 11:24 pm SE 17.1 21.0----29.79- 84.6 87.3----
2024-06-17 11:18 pm SE 18.1 22.0----29.79-- 87.4----
2024-06-17 11:12 pm SE 15.9 21.0----29.79- 84.6 87.4----
2024-06-17 11:06 pm SE 15.0 24.1----29.79- 84.6 87.4----
2024-06-17 11:00 pm SE 18.1 24.1----29.78+0.03 84.6 87.4----
2024-06-17 10:54 pm SE 18.1 22.9----29.78- 84.6 87.6----
2024-06-17 10:48 pm SE 18.1 24.1----29.78- 84.4 87.6----
2024-06-17 10:42 pm SE 19.0 22.0----29.78- 84.4 87.6----
2024-06-17 10:36 pmESE 18.1 21.0----29.78- 84.4 87.6----
2024-06-17 10:30 pm SE 19.0 26.0----29.78- 84.6 87.6----
2024-06-17 10:24 pm SE 19.0 22.0----29.78- 84.4 87.8----
2024-06-17 10:18 pm SE 19.0 24.1----29.78- 84.6 87.8----
2024-06-17 10:12 pmESE 19.0 24.1----29.78- 84.6 87.8----
2024-06-17 10:06 pm SE 17.1 22.9----29.78- 84.6 87.8----
2024-06-17 10:00 pm SE 17.1 22.0----29.78+0.02 84.7 88.0----
2024-06-17 09:54 pmESE 18.1 22.9----29.78- 84.7 88.0----
2024-06-17 09:48 pmESE 19.0 24.1----29.77-- 88.0----
2024-06-17 09:42 pmESE 19.0 22.9----29.77- 84.7 88.2----
2024-06-17 09:36 pm SE 22.0 26.0----29.77- 84.9 88.2----
2024-06-17 09:30 pmESE 22.0 26.0----29.77- 84.9 88.3----
2024-06-17 09:24 pm SE 19.0 25.1----29.77- 84.7 88.3----
2024-06-17 09:18 pmESE 19.0 25.1----29.77- 85.1 88.3----
2024-06-17 09:12 pmESE 19.0 24.1----29.77- 85.1 88.5----
2024-06-17 09:06 pmESE 19.0 25.1----29.77- 84.9 88.5----
2024-06-17 09:00 pm SE 18.1 25.1----29.77+0.02 85.1 88.7----
2024-06-17 08:54 pm SE 19.0 26.0----29.76- 84.9 88.7----
2024-06-17 08:48 pm SE 22.9 27.0----29.76- 84.7 88.9----
2024-06-17 08:42 pmSSE 17.1 25.1----29.76- 83.7 88.9----
2024-06-17 08:36 pm SE 22.0 27.0----29.76- 83.8 89.1----
2024-06-17 08:30 pm SE 20.0 24.1------ 84.6 89.1----
2024-06-17 08:24 pm SE 19.0 25.1------ 84.6 89.2----
2024-06-17 08:18 pm SE 20.0 25.1----29.76- 84.7 89.2----
2024-06-17 08:12 pm SE 22.0 26.0----29.75- 84.7 89.4----
2024-06-17 08:06 pm SE 19.0 25.1----29.75- 84.4 89.4----
2024-06-17 08:00 pm SE 20.0 28.0----29.75+0.00 84.2 89.4----
2024-06-17 07:54 pmESE 22.0 29.9----29.75- 84.0 89.4----
2024-06-17 07:48 pmESE 21.0 28.0----29.75- 84.4 89.6----
2024-06-17 07:42 pmESE 21.0 28.0----29.75- 84.6 89.6----
2024-06-17 07:36 pmESE 22.0 26.0----29.75- 84.6 89.6----
2024-06-17 07:30 pm SE 20.0 24.1----29.75- 86.0 89.6----
2024-06-17 07:24 pm SE 18.1 22.0----29.75- 86.2 89.8----
2024-06-17 07:18 pm SE 19.0 22.9----29.75-- 89.8----
2024-06-17 07:12 pm SE 18.1 22.9----29.75- 85.8 90.0----
2024-06-17 07:06 pm SE 18.1 25.1----29.75- 86.0 90.0----
2024-06-17 07:00 pm SE 17.1 22.0----29.75+0.00 85.8 90.0----
2024-06-17 06:54 pmESE 20.0 22.0----29.75- 84.9 90.0----
2024-06-17 06:48 pm SE 15.9 20.0----29.75- 85.8 90.0----
2024-06-17 06:42 pm SE 15.9 22.0----29.75- 86.5 90.0----
2024-06-17 06:36 pm SE 20.0 25.1----29.75- 85.1 90.0----
2024-06-17 06:30 pm SE 20.0 24.1----29.75- 85.6 90.0----
2024-06-17 06:24 pmESE 19.0 22.9----29.74- 86.4 90.1----
2024-06-17 06:18 pmESE 18.1 22.9----29.74- 86.7 90.1----
2024-06-17 06:12 pmESE 18.1 21.0----29.75- 86.5 90.1----
2024-06-17 06:06 pmESE 17.1 20.0----29.74- 86.4 90.1----
2024-06-17 06:00 pm SE 15.9 19.0----29.74-0.02 86.5 90.1----
2024-06-17 05:54 pmESE 17.1 20.0----29.74- 86.5 90.1----
2024-06-17 05:48 pm SE 15.9 20.0----29.74- 86.2 90.1----
2024-06-17 05:42 pm SE 15.0 19.0----29.74- 85.1 90.1----
2024-06-17 05:36 pm SE 15.9 24.1----29.75- 83.8 90.0----
2024-06-17 05:30 pmESE 21.0 25.1----29.74- 85.8 90.0----
2024-06-17 05:24 pmESE 17.1 21.0----29.74- 87.1 90.0----
2024-06-17 05:18 pm SE 15.9 21.0----29.75-- 90.0----
2024-06-17 05:12 pmESE 18.1 21.0----29.75- 86.5 90.0----
2024-06-17 05:06 pm SE 15.0 20.0----29.75- 87.6 90.0----
2024-06-17 05:00 pm-------29.75-0.01- 90.0----
2024-06-17 04:54 pm-------29.75-- 90.0----
2024-06-17 04:48 pmESE 15.0 20.0----29.75-- 90.0----
2024-06-17 04:42 pmESE 17.1 19.0----29.75-- 90.0----
2024-06-17 04:36 pmESE 15.9 18.1----29.75-- 90.0----
2024-06-17 04:30 pm SE 15.0 19.0----29.75- 86.9 90.0----
2024-06-17 04:24 pm SE 15.0 19.0----29.75- 87.1 90.0----
2024-06-17 04:18 pm SE 17.1 20.0------- 90.0----
2024-06-17 04:12 pmESE 17.1 19.0------ 86.7 89.8----
2024-06-17 04:06 pmESE 17.1 20.0------ 86.9 89.8----
2024-06-17 04:00 pmESE 17.1 19.0----29.75-0.02 86.4 89.8----
2024-06-17 03:54 pmESE 15.9 20.0----29.75- 86.2 89.8----
2024-06-17 03:48 pmESE 15.0 18.1----29.75- 85.5 89.8----
2024-06-17 03:42 pm SE 9.9 15.0----29.76- 84.2 89.8----
2024-06-17 03:36 pmSSE 9.9 12.0----29.76- 84.6 89.6----
2024-06-17 03:30 pm SE 9.9 22.9----29.76- 84.2 89.6----
2024-06-17 03:24 pm SE 15.9 20.0----29.76- 84.9 89.4----
2024-06-17 03:18 pmSSE 15.0 18.1----29.76- 85.8 89.4----
2024-06-17 03:12 pm SE 15.0 19.0----29.76- 86.4 89.2----
2024-06-17 03:06 pm SE 13.0 17.1----29.76- 86.5 89.1----
2024-06-17 03:00 pmSSE 15.0 17.1----29.76-0.02 86.0 88.9----
2024-06-17 02:54 pmSSE 15.0 22.0----29.77- 86.4 88.9----
2024-06-17 02:48 pmESE 15.0 18.1----29.77- 87.6 88.7----
2024-06-17 02:42 pmESE 15.0 19.0----29.76- 87.4 88.5----
2024-06-17 02:36 pmESE 17.1 19.0----29.77- 86.9 88.5----
2024-06-17 02:30 pmESE 15.0 19.0----29.77- 86.9 88.3----
2024-06-17 02:24 pmESE 15.0 19.0----29.77- 87.4 88.3----
2024-06-17 02:18 pmESE 14.0 18.1----29.77- 87.4 88.3----
2024-06-17 02:12 pm SE 12.0 15.9----29.77- 88.2 88.2----
2024-06-17 02:06 pmESE 12.0 17.1----29.77- 87.6 88.2----
2024-06-17 02:00 pmESE 15.0 21.0----29.76-0.02 87.3 88.0----
2024-06-17 01:54 pm SE 13.0 18.1----29.77- 87.1 88.0----
2024-06-17 01:48 pm SE 12.0 15.9----29.77- 87.3 87.8----
2024-06-17 01:42 pm SE 13.0 15.9----29.77- 87.6 87.8----
2024-06-17 01:36 pmESE 13.0 18.1----29.77- 86.9 87.6----
2024-06-17 01:30 pmESE 12.0 15.0----29.77- 87.3 87.6----
2024-06-17 01:24 pmESE 14.0 17.1----29.77- 87.1 87.6----
2024-06-17 01:18 pm SE 11.1 15.0----29.77- 87.4 87.6----
2024-06-17 01:12 pm SE 13.0 15.9----29.77- 87.8 87.6----
2024-06-17 01:06 pmESE 12.0 18.1----29.77- 87.1 87.4----
2024-06-17 01:00 pmESE 13.0 17.1----29.78+0.00 86.9 87.4----
2024-06-17 12:54 pm SE 12.0 17.1----29.78- 87.6 87.4----
2024-06-17 12:48 pm SE 13.0 18.1----29.78-- 87.4----
2024-06-17 12:42 pm SE 13.0 20.0----29.78- 87.1 87.4----
2024-06-17 12:36 pmESE 14.0 17.1----29.78- 86.7 87.4----
2024-06-17 12:30 pmESE 13.0 18.1----29.78- 86.7 87.3----
2024-06-17 12:24 pmESE 12.0 17.1----29.78- 87.3 87.3----
2024-06-17 12:18 pmESE 13.0 15.9----29.78- 86.9 87.3----
2024-06-17 12:12 pmESE 13.0 15.9----29.78- 87.1 87.3----
2024-06-17 12:06 pm SE 12.0 15.9----29.78- 87.1 87.3----
2024-06-17 12:00 pmESE 13.0 15.9----29.78+0.01 86.7 87.3----
2024-06-17 11:54 amESE 14.0 15.9----29.79- 86.7 87.3----
2024-06-17 11:48 amESE 14.0 15.9----29.79- 86.9 87.1----
2024-06-17 11:42 amESE 12.0 14.0----29.79- 87.1 87.1----
2024-06-17 11:36 am SE 12.0 15.0----29.79- 86.9 86.9----
2024-06-17 11:30 am SE 8.9 12.0----29.79- 86.7 86.9----
2024-06-17 11:24 amESE 12.0 15.0----29.79- 86.2 86.7----
2024-06-17 11:18 am SE 9.9 14.0----29.79- 86.9 86.5----
2024-06-17 11:12 am SE 9.9 13.0----29.78- 86.7 86.5----
2024-06-17 11:06 am SE 11.1 15.9----29.78- 86.9 86.4----
2024-06-17 11:00 am SE 11.1 13.0----29.78+0.01 86.5 86.4----
2024-06-17 10:54 amSSE 8.9 15.0----29.78- 86.5 86.2----
2024-06-17 10:48 amSSE 11.1 14.0----29.78-- 86.2----
2024-06-17 10:42 amSSE 11.1 13.0----29.78- 86.2 86.0----
2024-06-17 10:36 amSSE 11.1 15.9----29.78- 86.4 85.8----
2024-06-17 10:30 am SE 13.0 14.0----29.78-- 85.8----
2024-06-17 10:24 am SE 9.9 15.0----29.78-- 85.8----
2024-06-17 10:18 amSSE 12.0 15.9----29.78-- 85.6----
2024-06-17 10:12 amSSE 13.0 15.9----29.78- 86.0 85.6----
2024-06-17 10:06 amSSE 13.0 17.1----29.78- 85.6 85.6----
2024-06-17 10:00 amSSE 11.1 15.9----29.78+0.02 85.8 85.6----
2024-06-17 09:54 amSSE 13.0 18.1----29.78- 85.6 85.5----